This is the latest recevied weather packets stored in our database for station/object KC1TWD. If no packets are shown the sender has not sent any weather packets the latest 10 day(s).
| Time | Temp. | Humidity | Pressure | Rain* | Wind** | Luminosity | Snow |
|---|---|---|---|---|---|---|---|
| 1777914719 | 20° C | 35% | 1006.6 hPa | 0 mm | - | - | - |
| 1777914416 | 20.56° C | 34% | 1006.4 hPa | 0 mm | - | - | - |
| 1777914114 | 21.11° C | 34% | 1006.5 hPa | 0 mm | - | - | - |
| 1777913809 | 21.11° C | 33% | 1006.6 hPa | 0 mm | - | - | - |
| 1777913506 | 20.56° C | 34% | 1006.4 hPa | 0 mm | - | - | - |
| 1777913203 | 20.56° C | 32% | 1006.4 hPa | 0 mm | - | - | - |
| 1777912898 | 21.11° C | 31% | 1006.5 hPa | 0 mm | - | - | - |
| 1777912595 | 20.56° C | 33% | 1006.6 hPa | 0 mm | - | - | - |
| 1777912292 | 20.56° C | 34% | 1006.6 hPa | 0 mm | - | - | - |
| 1777911987 | 20.56° C | 34% | 1006.8 hPa | 0 mm | - | - | - |
| 1777911684 | 20.56° C | 37% | 1006.6 hPa | 0 mm | - | - | - |
| 1777911380 | 21.11° C | 32% | 1006.8 hPa | 0 mm | - | - | - |
| 1777911078 | 20.56° C | 33% | 1006.7 hPa | 0 mm | - | - | - |
| 1777910776 | 20.56° C | 34% | 1006.6 hPa | 0 mm | - | - | - |
| 1777910472 | 20.56° C | 33% | 1006.6 hPa | 0 mm | - | - | - |
| 1777910168 | 20.56° C | 33% | 1006.7 hPa | 0 mm | - | - | - |
| 1777909866 | 20° C | 34% | 1006.9 hPa | 0 mm | - | - | - |
| 1777909562 | 20° C | 36% | 1006.9 hPa | 0 mm | - | - | - |
| 1777909260 | 19.44° C | 35% | 1007 hPa | 0 mm | - | - | - |
| 1777908958 | 19.44° C | 37% | 1007.3 hPa | 0 mm | - | - | - |
| 1777908656 | 19.44° C | 35% | 1007.5 hPa | 0 mm | - | - | - |
| 1777908352 | 18.89° C | 35% | 1007.4 hPa | 0 mm | - | - | - |
| 1777908049 | 19.44° C | 35% | 1007.2 hPa | 0 mm | - | - | - |
| 1777907744 | 19.44° C | 36% | 1007.4 hPa | 0 mm | - | - | - |
| 1777907445 | 18.89° C | 36% | 1007.3 hPa | 0 mm | - | - | - |
* Rain latest hour (hover to see other rain measurements)
** Current wind speed in m/s (hover to see current wind gust speed)